Location: Recife
(8.0585°S, 34.8848°W)
Time: 10:14:40
(UTC-03:00)

Vanguard 2 - Pass Details

Date: 15 April 2026
Orbit: 554 x 2894 km, 32.9° (Epoch: 8 May)

Event Time Altitude Azimuth Distance (km) Brightness Sun altitude
Rises 17:01:36 0° 343° (NNW) 4,089 11.7 3.0°
Reaches altitude 10° 17:05:05 10° 0° (N) 3,489 11.0 2.1°
Maximum altitude 17:11:30 20° 44° (NE) 3,377 10.5 0.6°
Drops below altitude 10° 17:20:03 10° 85° (E) 4,850 11.0 -1.5°
Enters shadow 17:24:33 - 96° (E) 5,880 11.3 -2.6°
Sets 17:26:09 0° 99° (E) 6,257 - -3.0°
